{"data":{"norad_id":67632,"intl_designator":"2026-020R","name":"STARLINK-36633","alt_names":[],"object_type":"PAYLOAD","status":"ACTIVE","operator":null,"country":"US","launch_date":"2026-01-30","launch_site_code":"AFETR","launch_vehicle":null,"mission":null,"orbit_class":"UNKNOWN","rcs_meters":null,"size_class":null,"mass_kg":null,"dimensions":null,"purposes":["comms"],"wikipedia_slug":null,"has_3d_model":false,"image_url":null,"decayed_at":null,"tle_current":{"epoch":"2026-05-25T03:27:50.550912Z","epoch_age_seconds":66099,"freshness":"FRESH","line1":"1 67632U 26020R   26145.14433508  .00014933  00000+0  55079-3 0  9998","line2":"2 67632  43.0039  68.2371 0001123 257.7774 102.2952 15.27597016 17808","mean_motion":15.27597016,"eccentricity":0.0001123,"inclination_deg":43.0039,"raan_deg":68.2371,"arg_perigee_deg":257.7774,"mean_anomaly_deg":102.2952,"bstar":0.00055079,"rev_number":1780,"period_min":94.265698670362,"perigee_km":482.22763901042,"apogee_km":483.76864996387,"semimajor_km":6861.1351444871,"source":"CELESTRAK","updated_at":"2026-05-25T13:38:21.652411Z"}}}